This demonstration page uses our WeatherBlox Daily Observations layout. Learn more.

Left ArrowRight Arrow

36.17497, -115.13722

Hourly Observations for September 10, 2017

Temp ( °F °C ) Dew Point ( °F °C ) Humidity (%) Winds ( mph kmh ) Pressure ( in mb ) Visibility ( mi km ) Precip ( " mm )
12:53 am 00:53 Clear 75 23.9 61 16.1 62 62 N 5 7 30.04 1017 10 16 0.00 0.00
1:53 am 01:53 Clear 73 22.8 59 15 62 62 NNW 5 7 30.04 1017 10 16 0.00 0.00
2:53 am 02:53 Clear 73 22.8 61 16.1 66 66 NNW 5 7 30.03 1017 10 16 0.00 0.00
3:53 am 03:53 Clear 74 23.3 57 13.9 56 56 NNW 3 6 30.03 1017 10 16 0.00 0.00
4:53 am 04:53 Clear 72 22.2 57 13.9 59 59 Calm 30.04 1017 10 16 0.00 0.00
5:53 am 05:53 Clear 74 23.3 56 13.3 54 54 NNW 3 6 30.05 1018 10 16 0.00 0.00
6:53 am 06:53 Sunny 74 23.3 57 13.9 56 56 N 6 9 30.06 1018 10 16 0.00 0.00
7:53 am 07:53 Sunny 77 25 56 13.3 48 48 N 9 15 30.06 1018 10 16 0.00 0.00
8:53 am 08:53 Sunny 80 26.7 58 14.4 47 47 N 9 15 30.06 1018 10 16 0.00 0.00
9:53 am 09:53 Sunny 83 28.3 58 14.4 43 43 NNE 9 15 30.07 1018 10 16 0.00 0.00
10:53 am 10:53 Sunny 86 30 56 13.3 36 36 ENE 7 11 30.06 1018 10 16 0.00 0.00
11:53 am 11:53 Sunny 87 30.6 56 13.3 35 35 SSE 5 7 30.04 1017 10 16 0.00 0.00
12:53 pm 12:53 Sunny 91 32.8 54 12.2 28 28 ESE 12 19 30.02 1017 10 16 0.00 0.00
1:53 pm 13:53 Sunny 92 33.3 54 12.2 28 28 E 9 15 30.00 1016 10 16 0.00 0.00
2:53 pm 14:53 Sunny 93 33.9 53 11.7 26 26 E 8 13 29.98 1015 10 16 0.00 0.00
3:53 pm 15:53 Sunny 93 33.9 52 11.1 25 25 VRB 7 11 29.95 1014 10 16 0.00 0.00
4:53 pm 16:53 Sunny 93 33.9 50 10 23 23 Calm 29.94 1014 10 16 0.00 0.00
5:53 pm 17:53 Sunny 94 34.4 50 10 22 22 VRB 6 9 29.93 1014 10 16 0.00 0.00
6:53 pm 18:53 Sunny 91 32.8 51 10.6 26 26 ESE 6 9 29.94 1014 10 16 0.00 0.00
7:53 pm 19:53 Clear 91 32.8 50 10 25 25 Calm 29.94 1014 10 16 0.00 0.00
8:53 pm 20:53 Clear 89 31.7 54 12.2 30 30 WNW 7 11 29.94 1014 10 16 0.00 0.00
9:53 pm 21:53 Clear 85 29.4 55 12.8 36 36 NNW 5 7 29.95 1014 10 16 0.00 0.00
10:53 pm 22:53 Clear 84 28.9 54 12.2 36 36 NNW 3 6 29.95 1014 10 16 0.00 0.00
11:53 pm 23:53 Partly Cloudy 83 28.3 55 12.8 38 38 Calm 29.95 1014 10 16 0.00 0.00

Powered by AerisWeather